Showing default

HULIANWANG DIGUI-47, 65050

Orbit data source: Space-Track

HULIANWANG DIGUI-47, 65050 is a payload satellite owned by Zhongguo Xingwang (CN) in LEO that was launched on Wed, 30 Jul 2025 UTC via a CHANG ZHENG 8A launch vehicle from the Wenchang Satellite Launch Center (WSC). Payload-class satellites include a variety of spacecraft equipped with specific instruments for various scientific and technological missions. These include communications satellites like Starlink; space stations such as the ISS; scientific satellites like the Hubble; Earth observation satellites from companies like Planet Labs, Umbra, and HawkEye 360; GPS; miniature CubeSats for education and research; and military/defense satellites.

Loading next visibility...
Identifier
65050, 2025-162H
Orbit
LEO
Country
Flag of CNCN / PRC
Related business
Manufacturer
SECM
Mission
Operational Civil Communications
Bus & Motor
XINGWANG S, Unknown motor
Mass
~800 kg wet, ~800 kg dry
Launch date (UTC)
2025-07-30 (11 months ago)
Launch vehicle
CHANG ZHENG 8A
Launch site
Wenchang Satellite Launch Center (WSC)
Object type
Payload
Rocket body
Debris
Shape & HBR
Box + 2 Pan, 14.5 m
Radar Cross Section
5.935 m², Large (>1 m²)

Expand to show TLE details & history
Last TLE update: 10 hours ago

TLE from 10 hours ago
0 HULIANWANG DIGUI-47
1 65050U 25162H   26171.41557428 -.00000084  00000-0  86759-4 0  9997
2 65050  50.0026 253.9331 0000316 168.6229 191.4650 13.29325116 43793
Epoch: 2026-06-20T09:58Z
TLE epoch observation values (Epoch: 2026-06-20T09:58:25.617Z)
Latitude
-0.00005°
Longitude
-164.3042°
Altitude
1,150.049 km
Speed
7.279 km/s
True Right ascension
16h 55m 43s
True Declination
0° 00' 00"
Sunlit
Object was in full shadow at epoch
Visualization orbit readout
Latitude
Unknown
Longitude
Unknown
Altitude
Unknown
Speed
Unknown
Apparent Right ascension
Unknown
Apparent Declination
Unknown
Sunlit
N/A
Visualization observer readout
Local Sidereal Time
07:19:49
Azimuth
Unknown
Elevation
Unknown
Doppler factor
Unknown
Orbital elements
Apogee altitude
1,150.253 km
Perigee altitude
1,149.777 km
Semi-major axis
7,528.152 km
Eccentricity
0.00003
Inclination
50.0026°
RAAN
253.9331°
Arg. of periapsis
168.6229°
True anomaly
191.46428°
Mean anomaly
191.465°
Eccentric anomaly
191.46464°
Mean motion
3.32285 °/min
Orbital period
108.34 mins
BSTAR
0.000086759
Loading maneuver chart data...
Computing Atmospheric mass density...
Loading historical data...
Loading historical data...
Loading historical data...
Loading historical data...
Loading historical data...
Loading historical data...
Loading historical data...

Documentation

Showing up to 5 results
|